Puerto Banus, Marbella

>

This is an optional block (switch it off / on) in the settings - file ($SITE['banners'] = false;)

You can display ads, any other important text or photo’s using text / html or PHP code.

You can place one or more at the top and or bottom and it can all be different for content / size .



Meteosat more information blitzortung!


Radar lluvias  rain snow radar


Visita nuestra red de sitios de meteo:

Documentation for the template used

MeteoibericaRed estaciones Meteorologicas

MeteoclimaticRed estaciones Meteorologicas



Viento Desde: 20-04-2018 10:00 Hasta: 21-04-2018 04:59 Advertencias para: Viento Nivel: Amarillo info button

Pagina Historial Weather Underground texto

Diario Resumen Diciembre 20, 2017 Unidades:  Métrico    impérial   Tanto
« Anterior Dia
Siguiente Dia »
Diario Semana Mensual Anual Personalizada
  Maxima: Minima: Media:
Temperatura: -17.8 °C -12.5 °C -11 °C
Punto de rocío: -17.8 °C -14.3 °C -13.7 °C
Humedad: Humidity % 63 % 73 %
Velocidad del Viento: 0 km/h 0 km/h 18.2 km/h
Ráfagas de viento: 0 km/h - -
Viento:- - SSW
Pression baro: 0 hPa 34865.6 hPa -
Précipitaciones: 0 mm    
Historical Graphs
 
 
Datos de tabla para Diciembre 20, 2017
Tiempo Temperatura Punto de rocío Pression baro Viento Velocidad del Viento Ráfagas de viento Humedad Las precipitaciones Rate ( Hora )
-17.8 °C -17.8 °C 0 hPa Calm     Humidity % 0 mm
00:00 -11.6 °C -14.1 °C 34889.3 hPa North 29.8 km/h 29.8 km/h 74 % 0 mm
00:05 -11.6 °C -14.1 °C 34889.3 hPa North 32.8 km/h 32.8 km/h 74 % 0 mm
00:07 -11.7 °C -14.1 °C 34889.3 hPa North 32.8 km/h 32.8 km/h 74 % 0 mm
00:10 -11.7 °C -14.1 °C 34889.3 hPa NNE 26.9 km/h 26.9 km/h 74 % 0 mm
00:15 -11.7 °C -14.1 °C 34889.3 hPa North 26.9 km/h 26.9 km/h 74 % 0 mm
00:18 -11.7 °C -14.1 °C 34889.3 hPa North 23.8 km/h 23.8 km/h 74 % 0 mm
00:21 -11.7 °C -14.1 °C 34889.3 hPa NNE 28.5 km/h 28.5 km/h 74 % 0 mm
00:24 -11.7 °C -14.1 °C 34889.3 hPa NNW 29.8 km/h 29.8 km/h 74 % 0 mm
00:27 -11.7 °C -14.1 °C 34889.3 hPa North 23.8 km/h 23.8 km/h 74 % 0 mm
00:32 -11.7 °C -14.2 °C 34889.3 hPa North 29.8 km/h 29.8 km/h 74 % 0 mm
00:33 -11.7 °C -14.2 °C 34889.3 hPa North 23.8 km/h 23.8 km/h 74 % 0 mm
00:38 -11.7 °C -14.2 °C 34889.3 hPa North 26.9 km/h 26.9 km/h 74 % 0 mm
00:43 -11.7 °C -14.2 °C 34889.3 hPa North 29.8 km/h 29.8 km/h 74 % 0 mm
00:44 -11.7 °C -14.2 °C 34889.3 hPa North 29.8 km/h 29.8 km/h 74 % 0 mm
00:49 -11.7 °C -14.2 °C 34889.3 hPa North 26.9 km/h 26.9 km/h 74 % 0 mm
00:51 -11.7 °C -14.2 °C 34889.3 hPa North 26.9 km/h 26.9 km/h 74 % 0 mm
00:56 -11.7 °C -14.2 °C 34889.3 hPa North 29.8 km/h 29.8 km/h 74 % 0 mm
00:57 -11.7 °C -14.2 °C 34889.3 hPa North 26.9 km/h 26.9 km/h 74 % 0 mm
00:58 -11.7 °C -14.2 °C 34875.8 hPa NNW 26.9 km/h 26.9 km/h 74 % 0 mm
01:03 -11.7 °C -14.2 °C 34875.8 hPa North 29.8 km/h 29.8 km/h 74 % 0 mm
01:06 -11.7 °C -14.2 °C 34875.8 hPa North 29.8 km/h 29.8 km/h 74 % 0 mm
01:09 -11.7 °C -14.2 °C 34875.8 hPa North 26.9 km/h 26.9 km/h 74 % 0 mm
01:11 -11.7 °C -14.2 °C 34875.8 hPa NNW 31.1 km/h 31.1 km/h 74 % 0 mm
01:16 -11.7 °C -14.2 °C 34875.8 hPa North 29.8 km/h 29.8 km/h 74 % 0 mm
01:21 -11.8 °C -14.2 °C 34875.8 hPa North 26.9 km/h 26.9 km/h 74 % 0 mm
01:23 -11.8 °C -14.2 °C 34875.8 hPa North 29.8 km/h 29.8 km/h 74 % 0 mm
01:25 -11.8 °C -14.2 °C 34875.8 hPa North 29.8 km/h 29.8 km/h 74 % 0 mm
01:30 -11.8 °C -14.2 °C 34875.8 hPa North 29.8 km/h 29.8 km/h 74 % 0 mm
01:32 -11.8 °C -14.1 °C 34875.8 hPa North 29.8 km/h 29.8 km/h 75 % 0 mm
01:37 -11.8 °C -14.2 °C 34875.8 hPa North 29.8 km/h 29.8 km/h 75 % 0 mm
01:38 -11.8 °C -14.2 °C 34875.8 hPa NNE 29.8 km/h 29.8 km/h 75 % 0 mm
01:39 -11.8 °C -14.2 °C 34875.8 hPa North 26.9 km/h 26.9 km/h 75 % 0 mm
01:44 -11.8 °C -14.3 °C 34875.8 hPa NNW 23.8 km/h 23.8 km/h 74 % 0 mm
01:49 -11.8 °C -14.2 °C 34875.8 hPa North 29.8 km/h 29.8 km/h 75 % 0 mm
01:51 -11.8 °C -14.2 °C 34875.8 hPa NNE 26.9 km/h 26.9 km/h 75 % 0 mm
01:56 -11.8 °C -14.2 °C 34875.8 hPa North 26.9 km/h 26.9 km/h 75 % 0 mm
01:58 -11.8 °C -14.2 °C 34875.8 hPa NNE 26.9 km/h 26.9 km/h 75 % 0 mm
02:02 -11.8 °C -14.2 °C 34875.8 hPa North 29.8 km/h 29.8 km/h 75 % 0 mm
02:03 -11.8 °C -14.2 °C 34875.8 hPa North 29.8 km/h 29.8 km/h 75 % 0 mm
02:08 -11.9 °C -14.3 °C 34875.8 hPa North 29.8 km/h 29.8 km/h 75 % 0 mm
02:13 -11.9 °C -14.3 °C 34875.8 hPa NNW 29.8 km/h 29.8 km/h 75 % 0 mm
02:18 -11.9 °C -14.3 °C 34875.8 hPa North 29.8 km/h 29.8 km/h 75 % 0 mm
02:24 -11.9 °C -14.3 °C 34875.8 hPa North 26.9 km/h 26.9 km/h 75 % 0 mm
02:25 -11.9 °C -14.3 °C 34875.8 hPa North 23.8 km/h 23.8 km/h 75 % 0 mm
02:29 -11.9 °C -14.3 °C 34875.8 hPa NNW 20.9 km/h 20.9 km/h 75 % 0 mm
02:31 -11.9 °C -14.3 °C 34875.8 hPa North 20.9 km/h 20.9 km/h 75 % 0 mm
02:36 -11.9 °C -14.3 °C 34875.8 hPa North 26.9 km/h 26.9 km/h 75 % 0 mm
02:39 -11.9 °C -14.3 °C 34875.8 hPa NNW 26.9 km/h 26.9 km/h 75 % 0 mm
02:42 -11.9 °C -14.3 °C 34875.8 hPa NNW 26.9 km/h 26.9 km/h 75 % 0 mm
02:44 -11.9 °C -14.3 °C 34875.8 hPa North 28.5 km/h 28.5 km/h 75 % 0 mm
02:49 -11.9 °C -14.3 °C 34875.8 hPa North 29.8 km/h 29.8 km/h 75 % 0 mm
02:51 -11.9 °C -14.3 °C 34875.8 hPa North 26.9 km/h 26.9 km/h 75 % 0 mm
02:56 -11.9 °C -14.3 °C 34875.8 hPa North 26.9 km/h 26.9 km/h 75 % 0 mm
02:57 -11.9 °C -14.3 °C 34875.8 hPa North 26.9 km/h 26.9 km/h 75 % 0 mm
03:02 -11.9 °C -14.3 °C 34875.8 hPa NNE 26.9 km/h 26.9 km/h 75 % 0 mm
03:03 -11.9 °C -14.3 °C 34875.8 hPa NNW 26.9 km/h 26.9 km/h 75 % 0 mm
03:08 -11.9 °C -14.3 °C 34875.8 hPa North 28.5 km/h 28.5 km/h 75 % 0 mm
03:13 -11.9 °C -14.3 °C 34889.3 hPa North 26.9 km/h 26.9 km/h 75 % 0 mm
03:15 -11.9 °C -14.3 °C 34875.8 hPa North 29.8 km/h 29.8 km/h 75 % 0 mm
03:20 -11.9 °C -14.3 °C 34889.3 hPa North 29.8 km/h 29.8 km/h 75 % 0 mm
03:22 -11.9 °C -14.3 °C 34889.3 hPa NNW 26.9 km/h 26.9 km/h 75 % 0 mm
03:24 -11.9 °C -14.3 °C 34889.3 hPa North 29.8 km/h 29.8 km/h 75 % 0 mm
03:29 -11.9 °C -14.3 °C 34889.3 hPa North 29.8 km/h 29.8 km/h 75 % 0 mm
03:34 -11.9 °C -14.3 °C 34889.3 hPa North 29.8 km/h 29.8 km/h 75 % 0 mm
03:36 -11.9 °C -14.3 °C 34889.3 hPa North 29.8 km/h 29.8 km/h 75 % 0 mm
03:40 -11.9 °C -14.3 °C 34889.3 hPa North 32.8 km/h 32.8 km/h 75 % 0 mm
03:45 -11.8 °C -14.3 °C 34875.8 hPa North 26.9 km/h 26.9 km/h 74 % 0 mm
03:46 -11.8 °C -14.3 °C 34875.8 hPa North 26.9 km/h 26.9 km/h 74 % 0 mm
03:47 -11.8 °C -14.3 °C 34875.8 hPa North 26.9 km/h 26.9 km/h 74 % 0 mm
03:51 -11.8 °C -14.3 °C 34875.8 hPa North 29.8 km/h 29.8 km/h 74 % 0 mm
03:56 -11.8 °C -14.3 °C 34875.8 hPa North 29.8 km/h 29.8 km/h 74 % 0 mm
03:57 -11.8 °C -14.3 °C 34875.8 hPa NNW 29.8 km/h 29.8 km/h 74 % 0 mm
04:02 -11.8 °C -14.3 °C 34875.8 hPa North 23.8 km/h 23.8 km/h 74 % 0 mm
04:03 -11.9 °C -14.3 °C 34875.8 hPa North 23.8 km/h 23.8 km/h 74 % 0 mm
04:09 -11.8 °C -14.2 °C 34875.8 hPa North 29.8 km/h 29.8 km/h 75 % 0 mm
04:14 -11.8 °C -14.2 °C 34875.8 hPa North 29.8 km/h 29.8 km/h 75 % 0 mm
04:19 -11.8 °C -14.2 °C 34875.8 hPa NNW 29.8 km/h 29.8 km/h 75 % 0 mm
04:20 -11.8 °C -14.2 °C 34875.8 hPa NNE 20.9 km/h 20.9 km/h 75 % 0 mm
04:25 -11.8 °C -14.2 °C 34875.8 hPa North 23.8 km/h 23.8 km/h 75 % 0 mm
04:26 -11.8 °C -14.2 °C 34875.8 hPa North 23.8 km/h 23.8 km/h 75 % 0 mm
04:30 -11.8 °C -14.2 °C 34875.8 hPa NNW 26.9 km/h 26.9 km/h 75 % 0 mm
04:33 -11.8 °C -14.2 °C 34875.8 hPa North 23.8 km/h 23.8 km/h 75 % 0 mm
04:35 -11.8 °C -14.2 °C 34875.8 hPa North 26.9 km/h 26.9 km/h 75 % 0 mm
04:38 -11.8 °C -14.1 °C 34875.8 hPa North 28.5 km/h 28.5 km/h 75 % 0 mm
04:43 -11.8 °C -14.1 °C 34875.8 hPa North 26.9 km/h 26.9 km/h 75 % 0 mm
04:46 -11.8 °C -14.1 °C 34875.8 hPa North 29.8 km/h 29.8 km/h 75 % 0 mm
04:51 -11.8 °C -14.1 °C 34875.8 hPa North 20.9 km/h 20.9 km/h 75 % 0 mm
04:56 -11.8 °C -14.2 °C 34875.8 hPa NNW 23.3 km/h 23.3 km/h 75 % 0 mm
04:58 -11.8 °C -14.2 °C 34875.8 hPa North 26.9 km/h 26.9 km/h 75 % 0 mm
05:03 -11.8 °C -14.2 °C 34875.8 hPa North 26.9 km/h 26.9 km/h 75 % 0 mm
05:05 -11.8 °C -14.2 °C 34875.8 hPa North 23.8 km/h 23.8 km/h 75 % 0 mm
05:08 -11.8 °C -14.2 °C 34875.8 hPa North 23.8 km/h 23.8 km/h 75 % 0 mm
05:11 -11.8 °C -14.2 °C 34875.8 hPa North 20.9 km/h 20.9 km/h 75 % 0 mm
05:15 -11.8 °C -14.2 °C 34875.8 hPa North 23.8 km/h 23.8 km/h 75 % 0 mm
05:16 -11.8 °C -14.2 °C 34875.8 hPa North 23.8 km/h 23.8 km/h 75 % 0 mm
05:21 -11.8 °C -14.2 °C 34875.8 hPa North 26.9 km/h 26.9 km/h 75 % 0 mm
05:24 -11.8 °C -14.2 °C 34875.8 hPa North 29.8 km/h 29.8 km/h 75 % 0 mm
05:26 -11.8 °C -14.2 °C 34875.8 hPa North 23.8 km/h 23.8 km/h 75 % 0 mm
05:31 -11.8 °C -14.2 °C 34875.8 hPa North 26.9 km/h 26.9 km/h 75 % 0 mm
05:32 -11.8 °C -14.2 °C 34875.8 hPa NNW 26.9 km/h 26.9 km/h 75 % 0 mm
05:35 -11.8 °C -14.2 °C 34865.6 hPa North 26.9 km/h 26.9 km/h 75 % 0 mm
05:38 -11.8 °C -14.2 °C 34865.6 hPa North 23.8 km/h 23.8 km/h 75 % 0 mm
05:43 -11.8 °C -14.2 °C 34865.6 hPa North 26.9 km/h 26.9 km/h 75 % 0 mm
05:46 -11.8 °C -14.2 °C 34865.6 hPa NNW 26.9 km/h 26.9 km/h 75 % 0 mm
05:48 -11.8 °C -14.2 °C 34865.6 hPa NNW 26.9 km/h 26.9 km/h 75 % 0 mm
05:53 -11.9 °C -14.3 °C 34865.6 hPa North 26.9 km/h 26.9 km/h 75 % 0 mm
05:55 -11.9 °C -14.2 °C 34865.6 hPa North 26.9 km/h 26.9 km/h 76 % 0 mm
05:57 -11.9 °C -14.2 °C 34865.6 hPa North 20.9 km/h 20.9 km/h 76 % 0 mm
06:02 -11.9 °C -14.2 °C 34875.8 hPa NNE 26.9 km/h 26.9 km/h 76 % 0 mm
06:04 -11.9 °C -14.2 °C 34865.6 hPa North 26.9 km/h 26.9 km/h 76 % 0 mm
06:09 -11.9 °C -14.2 °C 34875.8 hPa North 26.9 km/h 26.9 km/h 76 % 0 mm
06:10 -11.9 °C -14.2 °C 34875.8 hPa NNE 26.9 km/h 26.9 km/h 76 % 0 mm
06:15 -11.9 °C -14.2 °C 34875.8 hPa North 29.8 km/h 29.8 km/h 76 % 0 mm
06:16 -11.9 °C -14.2 °C 34875.8 hPa North 29.8 km/h 29.8 km/h 76 % 0 mm
06:21 -11.9 °C -14.2 °C 34875.8 hPa North 26.9 km/h 26.9 km/h 76 % 0 mm
06:22 -11.9 °C -14.2 °C 34875.8 hPa NNE 26.9 km/h 26.9 km/h 76 % 0 mm
06:24 -11.9 °C -14.2 °C 34875.8 hPa North 29.8 km/h 29.8 km/h 76 % 0 mm
06:29 -12 °C -14.2 °C 34875.8 hPa North 29.8 km/h 29.8 km/h 76 % 0 mm
06:30 -12 °C -14.2 °C 34875.8 hPa North 26.9 km/h 26.9 km/h 76 % 0 mm
06:35 -12 °C -14.3 °C 34875.8 hPa North 26.9 km/h 26.9 km/h 76 % 0 mm
06:40 -12.1 °C -14.2 °C 34875.8 hPa North 29.8 km/h 29.8 km/h 77 % 0 mm
06:45 -12.1 °C -14.2 °C 34875.8 hPa North 26.9 km/h 26.9 km/h 77 % 0 mm
06:46 -12.1 °C -14.2 °C 34875.8 hPa North 26.9 km/h 26.9 km/h 77 % 0 mm
06:47 -12.1 °C -14.2 °C 34875.8 hPa North 29.8 km/h 29.8 km/h 77 % 0 mm
06:52 -12.1 °C -14.3 °C 34875.8 hPa NNE 26.9 km/h 26.9 km/h 77 % 0 mm
06:54 -12.1 °C -14.2 °C 34875.8 hPa NNE 28.5 km/h 28.5 km/h 78 % 0 mm
06:57 -12.1 °C -14.2 °C 34875.8 hPa North 29.8 km/h 29.8 km/h 78 % 0 mm
07:00 -12.2 °C -14.2 °C 34875.8 hPa North 28.5 km/h 28.5 km/h 78 % 0 mm
07:02 -12.2 °C -14.2 °C 34875.8 hPa North 29.8 km/h 29.8 km/h 78 % 0 mm
07:08 -12.2 °C -14.2 °C 34875.8 hPa North 26.9 km/h 26.9 km/h 78 % 0 mm
07:13 -12.2 °C -14.2 °C 34889.3 hPa North 29.8 km/h 29.8 km/h 78 % 0 mm
07:18 -12.2 °C -14.2 °C 34889.3 hPa North 23.8 km/h 23.8 km/h 78 % 0 mm
07:23 -12.2 °C -14.2 °C 34889.3 hPa North 29.8 km/h 29.8 km/h 78 % 0 mm
07:24 -12.2 °C -14.2 °C 34889.3 hPa North 29.8 km/h 29.8 km/h 78 % 0 mm
07:29 -12.2 °C -14.1 °C 34889.3 hPa North 23.8 km/h 23.8 km/h 79 % 0 mm
07:34 -12.2 °C -14.1 °C 34889.3 hPa North 23.8 km/h 23.8 km/h 79 % 0 mm
07:40 -12.2 °C -14.1 °C 34889.3 hPa North 26.9 km/h 26.9 km/h 79 % 0 mm
07:43 -12.2 °C -14.1 °C 34899.5 hPa North 23.8 km/h 23.8 km/h 79 % 0 mm
07:46 -12.2 °C -14.1 °C 34899.5 hPa North 23.8 km/h 23.8 km/h 79 % 0 mm
07:49 -12.2 °C -14.1 °C 34899.5 hPa North 23.8 km/h 23.8 km/h 79 % 0 mm
07:54 -12.2 °C -14.1 °C 34899.5 hPa North 20.9 km/h 20.9 km/h 79 % 0 mm
07:55 -12.2 °C -14.1 °C 34899.5 hPa North 26.9 km/h 26.9 km/h 79 % 0 mm
08:00 -12.2 °C -14.1 °C 34899.5 hPa North 20.8 km/h 31.1 km/h 79 % 0 mm
08:01 -12.2 °C -14.1 °C 34899.5 hPa North 23.8 km/h 23.8 km/h 79 % 0 mm
08:04 -12.2 °C -14.1 °C 34899.5 hPa North 26.9 km/h 26.9 km/h 79 % 0 mm
08:06 -12.2 °C -14.1 °C 34899.5 hPa North 26.9 km/h 26.9 km/h 79 % 0 mm
08:11 -12.2 °C -14.1 °C 34909.7 hPa North 26.9 km/h 26.9 km/h 79 % 0 mm
08:13 -12.2 °C -14.2 °C 34909.7 hPa NNW 26.9 km/h 26.9 km/h 79 % 0 mm
08:18 -12.2 °C -14.2 °C 34909.7 hPa North 29.8 km/h 29.8 km/h 79 % 0 mm
08:19 -12.2 °C -14.2 °C 34909.7 hPa North 29.8 km/h 29.8 km/h 79 % 0 mm
08:24 -12.3 °C -14.2 °C 34909.7 hPa NNW 23.8 km/h 23.8 km/h 79 % 0 mm
08:29 -12.3 °C -14.2 °C 34909.7 hPa North 23.8 km/h 23.8 km/h 79 % 0 mm
08:30 -12.3 °C -14.2 °C 34909.7 hPa North 20.9 km/h 20.9 km/h 79 % 0 mm
08:35 -12.3 °C -14.2 °C 34909.7 hPa NNW 23.8 km/h 23.8 km/h 79 % 0 mm
08:36 -12.3 °C -14.2 °C 34909.7 hPa North 20.9 km/h 20.9 km/h 79 % 0 mm
08:41 -12.3 °C -14.2 °C 34909.7 hPa North 17.9 km/h 17.9 km/h 79 % 0 mm
08:46 -12.3 °C -14.2 °C 34909.7 hPa NNW 23.8 km/h 23.8 km/h 79 % 0 mm
08:49 -12.3 °C -14.2 °C 34909.7 hPa North 23.8 km/h 23.8 km/h 79 % 0 mm
08:52 -12.3 °C -14.2 °C 34909.7 hPa North 20.9 km/h 20.9 km/h 79 % 0 mm
08:55 -12.3 °C -14.2 °C 34909.7 hPa NNW 26.9 km/h 26.9 km/h 79 % 0 mm
08:57 -12.3 °C -14.2 °C 34909.7 hPa North 23.8 km/h 23.8 km/h 79 % 0 mm
09:02 -12.2 °C -14.2 °C 34923.2 hPa North 26.9 km/h 26.9 km/h 79 % 0 mm
09:03 -12.2 °C -14.2 °C 34923.2 hPa North 23.8 km/h 23.8 km/h 79 % 0 mm
09:04 -12.2 °C -14.2 °C 34923.2 hPa North 20.9 km/h 20.9 km/h 79 % 0 mm
09:08 -12.2 °C -14.2 °C 34923.2 hPa NNW 23.8 km/h 23.8 km/h 78 % 0 mm
09:10 -12.2 °C -14.2 °C 34923.2 hPa North 23.8 km/h 23.8 km/h 78 % 0 mm
09:14 -12.1 °C -14.1 °C 34923.2 hPa North 20.9 km/h 20.9 km/h 78 % 0 mm
09:19 -12.1 °C -14.1 °C 34923.2 hPa NNW 26.9 km/h 26.9 km/h 78 % 0 mm
09:20 -12.1 °C -14.1 °C 34923.2 hPa North 18.2 km/h 25.9 km/h 78 % 0 mm
09:25 -11.9 °C -14.1 °C 34933.4 hPa North 23.8 km/h 23.8 km/h 77 % 0 mm
09:26 -11.9 °C -14.1 °C 34933.4 hPa North 23.8 km/h 23.8 km/h 77 % 0 mm
09:31 -11.8 °C -14 °C 34923.2 hPa North 20.9 km/h 20.9 km/h 77 % 0 mm
09:32 -11.8 °C -14 °C 34933.4 hPa NNW 23.8 km/h 23.8 km/h 77 % 0 mm
09:35 -11.7 °C -14 °C 34933.4 hPa North 20.9 km/h 20.9 km/h 76 % 0 mm
09:38 -11.7 °C -13.9 °C 34933.4 hPa North 20.9 km/h 20.9 km/h 76 % 0 mm
09:42 -11.6 °C -14 °C 34933.4 hPa North 23.8 km/h 23.8 km/h 75 % 0 mm
09:43 -11.6 °C -14 °C 34933.4 hPa North 20.9 km/h 20.9 km/h 75 % 0 mm
09:48 -11.6 °C -14 °C 34933.4 hPa North 20.9 km/h 20.9 km/h 74 % 0 mm
09:49 -11.5 °C -14 °C 34933.4 hPa North 20.9 km/h 20.9 km/h 74 % 0 mm
09:54 -11.4 °C -13.9 °C 34933.4 hPa North 20.9 km/h 20.9 km/h 74 % 0 mm
09:59 -11.3 °C -13.9 °C 34946.9 hPa North 26.9 km/h 26.9 km/h 73 % 0 mm
10:01 -11.3 °C -13.8 °C 34946.9 hPa North 17.9 km/h 17.9 km/h 73 % 0 mm
10:05 -11.2 °C -13.8 °C 34946.9 hPa North 20.9 km/h 20.9 km/h 73 % 0 mm
10:09 -11.2 °C -13.8 °C 34946.9 hPa North 17.9 km/h 17.9 km/h 72 % 0 mm
10:14 -11.1 °C -13.8 °C 34946.9 hPa North 18.2 km/h 18.2 km/h 72 % 0 mm
10:15 -11.1 °C -13.8 °C 34946.9 hPa North 20.9 km/h 20.9 km/h 72 % 0 mm
10:16 -11.1 °C -13.8 °C 34946.9 hPa North 20.9 km/h 20.9 km/h 72 % 0 mm
10:21 -10.9 °C -13.7 °C 34946.9 hPa North 15.6 km/h 15.6 km/h 72 % 0 mm
10:25 -10.9 °C -13.7 °C 34946.9 hPa North 17.9 km/h 17.9 km/h 71 % 0 mm
10:27 -10.9 °C -13.7 °C 34946.9 hPa North 20.9 km/h 20.9 km/h 71 % 0 mm
10:32 -10.8 °C -13.7 °C 34957.1 hPa NNE 20.9 km/h 20.9 km/h 71 % 0 mm
10:33 -10.8 °C -13.8 °C 34957.1 hPa North 18.2 km/h 18.2 km/h 70 % 0 mm
10:38 -10.7 °C -13.7 °C 34957.1 hPa North 15 km/h 15 km/h 70 % 0 mm
10:43 -10.6 °C -13.6 °C 34957.1 hPa North 11.9 km/h 11.9 km/h 70 % 0 mm
10:47 -10.6 °C -13.5 °C 34957.1 hPa North 11.9 km/h 11.9 km/h 70 % 0 mm
10:49 -10.5 °C -13.4 °C 34957.1 hPa North 9 km/h 9 km/h 70 % 0 mm
10:54 -10.4 °C -13.4 °C 34957.1 hPa North 9 km/h 9 km/h 70 % 0 mm
10:55 -10.3 °C -13.3 °C 34967.2 hPa North 3.1 km/h 3.1 km/h 70 % 0 mm
11:01 -10.2 °C -13.2 °C 34967.2 hPa Calm     70 % 0 mm
11:06 -10.1 °C -12.9 °C 34967.2 hPa Calm     71 % 0 mm
11:07 -10.1 °C -12.9 °C 34967.2 hPa Calm     71 % 0 mm
11:12 -9.9 °C -12.8 °C 34967.2 hPa Calm     71 % 0 mm
11:13 -9.9 °C -12.7 °C 34967.2 hPa Calm     71 % 0 mm
11:17 -9.8 °C -12.8 °C 34967.2 hPa East 11.9 km/h 11.9 km/h 70 % 0 mm
11:21 -9.8 °C -12.7 °C 34967.2 hPa ESE 12.9 km/h 12.9 km/h 70 % 0 mm
11:26 -9.7 °C -12.8 °C 34967.2 hPa ESE 17.9 km/h 17.9 km/h 69 % 0 mm
11:27 -9.7 °C -12.8 °C 34967.2 hPa East 20.9 km/h 20.9 km/h 69 % 0 mm
11:32 -9.8 °C -13 °C 34967.2 hPa ESE 17.9 km/h 17.9 km/h 68 % 0 mm
11:33 -9.8 °C -13 °C 34967.2 hPa ESE 17.9 km/h 17.9 km/h 68 % 0 mm
11:38 -9.7 °C -12.9 °C 34967.2 hPa ESE 18.2 km/h 18.2 km/h 68 % 0 mm
11:43 -9.7 °C -13.1 °C 34967.2 hPa ESE 15 km/h 15 km/h 67 % 0 mm
11:44 -9.7 °C -12.9 °C 34967.2 hPa ESE 18.2 km/h 18.2 km/h 68 % 0 mm
11:45 -9.7 °C -12.9 °C 34967.2 hPa ESE 17.9 km/h 17.9 km/h 68 % 0 mm
11:50 -9.7 °C -13.2 °C 34967.2 hPa SE 23.8 km/h 23.8 km/h 66 % 0 mm
11:55 -9.6 °C -13 °C 34967.2 hPa ESE 17.9 km/h 17.9 km/h 67 % 0 mm
12:00 -9.6 °C -13.1 °C 34967.2 hPa SE 11.9 km/h 11.9 km/h 66 % 0 mm
12:02 -9.6 °C -13.1 °C 34957.1 hPa SE 12.9 km/h 12.9 km/h 66 % 0 mm
12:05 -9.6 °C -13.1 °C 34957.1 hPa SE 11.9 km/h 11.9 km/h 66 % 0 mm
12:08 -9.6 °C -13.1 °C 34957.1 hPa ESE 12.9 km/h 12.9 km/h 66 % 0 mm
12:13 -9.6 °C -13.2 °C 34957.1 hPa ESE 17.9 km/h 17.9 km/h 65 % 0 mm
12:15 -9.6 °C -13.1 °C 34957.1 hPa ESE 12.9 km/h 18.2 km/h 66 % 0 mm
12:19 -9.6 °C -13.1 °C 34946.9 hPa ESE 18.2 km/h 18.2 km/h 66 % 0 mm
12:22 -9.6 °C -13.1 °C 34946.9 hPa SE 17.9 km/h 17.9 km/h 66 % 0 mm
12:27 -9.6 °C -13.1 °C 34946.9 hPa SE 11.9 km/h 11.9 km/h 66 % 0 mm
12:29 -9.6 °C -13.1 °C 34946.9 hPa SE 10.3 km/h 10.3 km/h 66 % 0 mm
12:34 -9.6 °C -13.1 °C 34946.9 hPa ESE 9 km/h 9 km/h 66 % 0 mm
12:37 -9.6 °C -12.9 °C 34946.9 hPa ESE 9 km/h 9 km/h 67 % 0 mm
12:39 -9.6 °C -12.9 °C 34946.9 hPa SE 10.3 km/h 10.3 km/h 67 % 0 mm
12:44 -9.6 °C -13.1 °C 34946.9 hPa SE 9 km/h 9 km/h 66 % 0 mm
12:45 -9.6 °C -12.9 °C 34946.9 hPa SE 9 km/h 9 km/h 67 % 0 mm
12:46 -9.6 °C -12.9 °C 34946.9 hPa SE 9 km/h 9 km/h 67 % 0 mm
12:51 -9.6 °C -13 °C 34933.4 hPa SE 9 km/h 9 km/h 66 % 0 mm
12:52 -9.5 °C -12.9 °C 34933.4 hPa SE 9 km/h 9 km/h 67 % 0 mm
12:56 -9.5 °C -13 °C 34933.4 hPa SE 9 km/h 9 km/h 66 % 0 mm
12:59 -9.5 °C -12.9 °C 34933.4 hPa SE 9 km/h 9 km/h 66 % 0 mm
13:01 -9.4 °C -12.9 °C 34933.4 hPa SE 6 km/h 6 km/h 66 % 0 mm
13:03 -9.4 °C -13.1 °C 34933.4 hPa SE 9 km/h 9 km/h 65 % 0 mm
13:08 -9.4 °C -12.9 °C 34933.4 hPa SE 9 km/h 9 km/h 66 % 0 mm
13:13 -9.4 °C -12.9 °C 34923.2 hPa SE 9 km/h 9 km/h 66 % 0 mm
13:15 -9.4 °C -12.9 °C 34923.2 hPa SE 5.1 km/h 10.3 km/h 66 % 0 mm
13:16 -9.3 °C -12.8 °C 34923.2 hPa SE 9 km/h 9 km/h 66 % 0 mm
13:20 -9.3 °C -12.8 °C 34923.2 hPa SE 10.3 km/h 10.3 km/h 66 % 0 mm
13:25 -9.3 °C -12.8 °C 34923.2 hPa SE 9 km/h 9 km/h 66 % 0 mm
13:30 -9.2 °C -12.8 °C 34923.2 hPa SE 9 km/h 9 km/h 65 % 0 mm
13:32 -9.1 °C -12.8 °C 34909.7 hPa SE 9 km/h 9 km/h 65 % 0 mm
13:35 -9.1 °C -12.7 °C 34909.7 hPa SE 9 km/h 9 km/h 65 % 0 mm
13:37 -9.1 °C -12.8 °C 34909.7 hPa SE 9 km/h 9 km/h 64 % 0 mm
13:42 -8.9 °C -12.6 °C 34909.7 hPa SE 9 km/h 9 km/h 65 % 0 mm
13:43 -8.9 °C -12.6 °C 34909.7 hPa SE 6 km/h 6 km/h 65 % 0 mm
13:48 -8.9 °C -12.7 °C 34909.7 hPa SE 6 km/h 6 km/h 64 % 0 mm
13:54 -8.8 °C -12.6 °C 34909.7 hPa SE 9 km/h 9 km/h 64 % 0 mm
13:55 -8.8 °C -12.6 °C 34909.7 hPa SE 9 km/h 9 km/h 64 % 0 mm
14:00 -8.8 °C -12.5 °C 34909.7 hPa SE 6 km/h 6 km/h 65 % 0 mm
14:01 -8.8 °C -12.5 °C 34899.5 hPa SE 5.1 km/h 5.1 km/h 65 % 0 mm
14:06 -8.8 °C -12.6 °C 34899.5 hPa SE 5.1 km/h 5.1 km/h 64 % 0 mm
14:08 -8.8 °C -12.4 °C 34899.5 hPa SE 6 km/h 6 km/h 65 % 0 mm
14:11 -8.8 °C -12.6 °C 34899.5 hPa SE 9 km/h 9 km/h 64 % 0 mm
14:15 -8.8 °C -12.4 °C 34899.5 hPa SE 6 km/h 6 km/h 65 % 0 mm
14:16 -8.8 °C -12.6 °C 34899.5 hPa SE 6 km/h 6 km/h 64 % 0 mm
14:21 -8.9 °C -12.7 °C 34899.5 hPa SE 9 km/h 9 km/h 64 % 0 mm
14:22 -8.9 °C -12.7 °C 34899.5 hPa SE 9 km/h 9 km/h 64 % 0 mm
14:24 -8.9 °C -12.6 °C 34899.5 hPa SE 9 km/h 9 km/h 65 % 0 mm
14:29 -9 °C -12.6 °C 34899.5 hPa SSE 7.7 km/h 7.7 km/h 66 % 0 mm
14:33 -9.2 °C -12.8 °C 34899.5 hPa SSE 6 km/h 6 km/h 65 % 0 mm
14:36 -9.2 °C -12.8 °C 34899.5 hPa Calm     65 % 0 mm
14:40 -9.1 °C -12.7 °C 34899.5 hPa SSE 10.3 km/h 10.3 km/h 65 % 0 mm
14:41 -9.1 °C -12.8 °C 34889.3 hPa SSE 9 km/h 9 km/h 64 % 0 mm
14:46 -9.1 °C -12.7 °C 34889.3 hPa SSE 11.9 km/h 11.9 km/h 65 % 0 mm
14:47 -9.1 °C -12.7 °C 34889.3 hPa South 11.9 km/h 11.9 km/h 65 % 0 mm
14:52 -9.1 °C -12.8 °C 34889.3 hPa South 9 km/h 9 km/h 64 % 0 mm
14:56 -9 °C -12.8 °C 34889.3 hPa South 9 km/h 9 km/h 64 % 0 mm
15:01 -9 °C -12.9 °C 34889.3 hPa SSW 11.9 km/h 11.9 km/h 63 % 0 mm
15:02 -9 °C -12.6 °C 34889.3 hPa SSW 11.9 km/h 11.9 km/h 65 % 0 mm
15:07 -9 °C -12.8 °C 34889.3 hPa South 11.9 km/h 11.9 km/h 64 % 0 mm
15:08 -9 °C -12.8 °C 34889.3 hPa South 11.9 km/h 11.9 km/h 64 % 0 mm
15:11 -9.1 °C -12.8 °C 34889.3 hPa South 11.9 km/h 11.9 km/h 64 % 0 mm
15:13 -9.1 °C -12.9 °C 34889.3 hPa South 11.9 km/h 11.9 km/h 64 % 0 mm
15:16 -9.1 °C -12.9 °C 34889.3 hPa SSW 17.9 km/h 17.9 km/h 64 % 0 mm
15:19 -9.1 °C -12.7 °C 34889.3 hPa South 12.9 km/h 12.9 km/h 65 % 0 mm
15:20 -9.1 °C -12.7 °C 34889.3 hPa South 11.9 km/h 11.9 km/h 65 % 0 mm
15:26 -9.1 °C -12.8 °C 34875.8 hPa SSW 10.3 km/h 10.3 km/h 64 % 0 mm
15:31 -9.1 °C -12.6 °C 34875.8 hPa South 15 km/h 15 km/h 66 % 0 mm
15:32 -9.1 °C -12.6 °C 34875.8 hPa South 12.9 km/h 12.9 km/h 66 % 0 mm
15:34 -9.1 °C -12.7 °C 34875.8 hPa South 15 km/h 15 km/h 65 % 0 mm
15:37 -9.1 °C -12.9 °C 34875.8 hPa South 9 km/h 9 km/h 64 % 0 mm
15:42 -9.1 °C -12.8 °C 34875.8 hPa South 11.9 km/h 11.9 km/h 65 % 0 mm
15:43 -9.1 °C -12.8 °C 34875.8 hPa South 11.9 km/h 11.9 km/h 65 % 0 mm
15:44 -9.1 °C -12.8 °C 34875.8 hPa South 11.9 km/h 11.9 km/h 65 % 0 mm
15:49 -9.1 °C -12.7 °C 34875.8 hPa SSW 11.9 km/h 11.9 km/h 66 % 0 mm
15:50 -9.1 °C -12.8 °C 34875.8 hPa SSW 11.9 km/h 11.9 km/h 65 % 0 mm
15:55 -9.1 °C -12.6 °C 34875.8 hPa SSW 15.6 km/h 15.6 km/h 66 % 0 mm
16:00 -9.1 °C -12.8 °C 34875.8 hPa South 15 km/h 15 km/h 65 % 0 mm
16:02 -9.1 °C -12.8 °C 34875.8 hPa SSW 15 km/h 15 km/h 65 % 0 mm
16:07 -9.1 °C -12.8 °C 34875.8 hPa SSW 11.9 km/h 11.9 km/h 65 % 0 mm
16:08 -9.1 °C -12.8 °C 34875.8 hPa SSW 15 km/h 15 km/h 65 % 0 mm
16:11 -9.2 °C -12.9 °C 34865.6 hPa SSW 15.6 km/h 15.6 km/h 64 % 0 mm
16:14 -9.2 °C -12.8 °C 34865.6 hPa SSW 15 km/h 15 km/h 65 % 0 mm
16:19 -9.2 °C -12.8 °C 34875.8 hPa SSW 10.3 km/h 10.3 km/h 65 % 0 mm
16:20 -9.2 °C -12.8 °C 34875.8 hPa SSW 12.9 km/h 12.9 km/h 65 % 0 mm
16:23 -9.2 °C -12.9 °C 34875.8 hPa SSW 10.3 km/h 10.3 km/h 64 % 0 mm
16:28 -9.1 °C -12.9 °C 34875.8 hPa SW 11.9 km/h 11.9 km/h 64 % 0 mm
16:33 -9.1 °C -13 °C 34875.8 hPa SW 9 km/h 9 km/h 63 % 0 mm
16:34 -9.1 °C -13 °C 34875.8 hPa SW 9 km/h 9 km/h 63 % 0 mm
16:39 -9.1 °C -13 °C 34875.8 hPa SW 12.9 km/h 12.9 km/h 63 % 0 mm
16:43 -9.1 °C -13 °C 34875.8 hPa SW 11.9 km/h 11.9 km/h 63 % 0 mm
16:45 -9.1 °C -12.9 °C 34875.8 hPa SW 12.9 km/h 12.9 km/h 64 % 0 mm
16:50 -9.1 °C -13 °C 34875.8 hPa SW 9 km/h 9 km/h 63 % 0 mm
16:51 -9.1 °C -13 °C 34875.8 hPa SW 10.3 km/h 10.3 km/h 63 % 0 mm
16:56 -9.1 °C -12.8 °C 34865.6 hPa SW 15 km/h 15 km/h 65 % 0 mm
17:00 -9.2 °C -12.9 °C 34865.6 hPa SW 11.9 km/h 11.9 km/h 64 % 0 mm
17:02 -9.2 °C -12.9 °C 34865.6 hPa SW 12.9 km/h 12.9 km/h 64 % 0 mm
17:06 -9.2 °C -12.8 °C 34875.8 hPa SW 15 km/h 15 km/h 65 % 0 mm
17:10 -9.2 °C -12.7 °C 34875.8 hPa SW 12.9 km/h 12.9 km/h 66 % 0 mm
17:15 -9.3 °C -12.8 °C 34875.8 hPa SW 11.9 km/h 11.9 km/h 66 % 0 mm
17:16 -9.3 °C -12.8 °C 34875.8 hPa SW 11.9 km/h 11.9 km/h 66 % 0 mm
17:19 -9.3 °C -12.8 °C 34875.8 hPa WSW 11.9 km/h 11.9 km/h 66 % 0 mm
17:22 -9.3 °C -12.8 °C 34875.8 hPa WSW 12.9 km/h 12.9 km/h 66 % 0 mm
17:27 -9.3 °C -12.9 °C 34875.8 hPa WSW 11.9 km/h 11.9 km/h 66 % 0 mm
17:29 -9.3 °C -13 °C 34875.8 hPa WSW 11.9 km/h 11.9 km/h 65 % 0 mm
17:31 -9.4 °C -13 °C 34875.8 hPa WSW 11.9 km/h 11.9 km/h 65 % 0 mm
17:35 -9.4 °C -13.1 °C 34875.8 hPa WSW 15 km/h 15 km/h 65 % 0 mm
17:40 -9.4 °C -12.8 °C 34875.8 hPa WSW 10.3 km/h 10.3 km/h 67 % 0 mm
17:45 -9.4 °C -12.8 °C 34875.8 hPa WSW 12.9 km/h 12.9 km/h 67 % 0 mm
17:48 -9.5 °C -12.7 °C 34875.8 hPa WSW 11.9 km/h 11.9 km/h 68 % 0 mm
17:49 -9.5 °C -12.7 °C 34875.8 hPa West 11.9 km/h 11.9 km/h 68 % 0 mm
17:54 -9.6 °C -12.9 °C 34875.8 hPa WSW 12.9 km/h 12.9 km/h 67 % 0 mm
17:58 -9.6 °C -12.9 °C 34875.8 hPa WSW 9 km/h 9 km/h 67 % 0 mm
18:01 -9.6 °C -12.9 °C 34875.8 hPa WSW 6 km/h 6 km/h 67 % 0 mm
18:06 -9.6 °C -13 °C 34875.8 hPa WSW 9 km/h 9 km/h 67 % 0 mm
18:07 -9.6 °C -13 °C 34875.8 hPa WSW 9 km/h 9 km/h 67 % 0 mm
18:08 -9.7 °C -13 °C 34875.8 hPa WSW 9 km/h 9 km/h 67 % 0 mm
18:12 -9.7 °C -12.9 °C 34889.3 hPa Calm     68 % 0 mm
18:17 -9.7 °C -12.9 °C 34889.3 hPa West 9 km/h 9 km/h 68 % 0 mm
18:19 -9.7 °C -12.9 °C 34889.3 hPa West 6 km/h 6 km/h 68 % 0 mm
18:24 -9.7 °C -12.9 °C 34889.3 hPa Calm     68 % 0 mm
18:25 -9.7 °C -12.9 °C 34889.3 hPa Calm     68 % 0 mm
18:26 -9.7 °C -12.9 °C 34889.3 hPa Calm     68 % 0 mm
18:31 -9.8 °C -13 °C 34889.3 hPa Calm     68 % 0 mm
18:33 -9.8 °C -13 °C 34889.3 hPa Calm     68 % 0 mm
18:38 -9.8 °C -13 °C 34889.3 hPa Calm     68 % 0 mm
18:43 -9.8 °C -13.1 °C 34889.3 hPa Calm     68 % 0 mm
18:44 -9.8 °C -13.1 °C 34889.3 hPa Calm     68 % 0 mm
18:49 -9.8 °C -13.1 °C 34889.3 hPa Calm     68 % 0 mm
18:54 -9.9 °C -13.1 °C 34889.3 hPa Calm     69 % 0 mm
18:55 -9.9 °C -13.1 °C 34889.3 hPa Calm     69 % 0 mm
19:00 -10.2 °C -13.2 °C 34889.3 hPa Calm     70 % 0 mm
19:01 -10.2 °C -13.2 °C 34889.3 hPa Calm     70 % 0 mm
19:03 -10.3 °C -13.2 °C 34889.3 hPa Calm     71 % 0 mm
19:07 -10.4 °C -13.3 °C 34889.3 hPa Calm     71 % 0 mm
19:10 -10.4 °C -13.2 °C 34889.3 hPa NNW 9 km/h 9 km/h 72 % 0 mm
19:15 -10.5 °C -13.3 °C 34889.3 hPa North 9 km/h 9 km/h 72 % 0 mm
19:16 -10.5 °C -13.3 °C 34889.3 hPa North 9 km/h 9 km/h 72 % 0 mm
19:17 -10.6 °C -13.3 °C 34889.3 hPa North 10.3 km/h 10.3 km/h 72 % 0 mm
19:22 -10.7 °C -13.3 °C 34889.3 hPa NNE 12.9 km/h 12.9 km/h 73 % 0 mm
19:27 -10.9 °C -13.4 °C 34889.3 hPa North 12.9 km/h 12.9 km/h 74 % 0 mm
19:28 -10.9 °C -13.4 °C 34889.3 hPa North 11.9 km/h 11.9 km/h 74 % 0 mm
19:33 -11 °C -13.4 °C 34889.3 hPa North 9 km/h 9 km/h 75 % 0 mm
19:37 -11.1 °C -13.4 °C 34889.3 hPa NNW 15.6 km/h 15.6 km/h 75 % 0 mm
19:38 -11.1 °C -13.4 °C 34889.3 hPa NNW 15 km/h 15 km/h 75 % 0 mm
19:43 -11 °C -13.4 °C 34875.8 hPa NNW 9 km/h 9 km/h 75 % 0 mm
19:48 -11 °C -13.4 °C 34889.3 hPa NNW 9 km/h 9 km/h 75 % 0 mm
19:49 -11 °C -13.4 °C 34889.3 hPa NNW 9 km/h 9 km/h 75 % 0 mm
19:50 -11 °C -13.4 °C 34889.3 hPa NNW 9 km/h 9 km/h 75 % 0 mm
19:55 -11 °C -13.4 °C 34889.3 hPa NNE 11.9 km/h 11.9 km/h 75 % 0 mm
19:56 -11 °C -13.4 °C 34889.3 hPa NNE 10.3 km/h 10.3 km/h 75 % 0 mm
19:59 -11.1 °C -13.4 °C 34889.3 hPa NNE 11.9 km/h 11.9 km/h 75 % 0 mm
20:01 -11.1 °C -13.5 °C 34889.3 hPa North 12.9 km/h 12.9 km/h 75 % 0 mm
20:06 -11.2 °C -13.5 °C 34889.3 hPa North 15 km/h 15 km/h 76 % 0 mm
20:11 -11.3 °C -13.6 °C 34889.3 hPa North 20.9 km/h 20.9 km/h 76 % 0 mm
20:12 -11.3 °C -13.7 °C 34889.3 hPa North 20.9 km/h 20.9 km/h 76 % 0 mm
20:17 -11.4 °C -13.6 °C 34889.3 hPa NNW 17.9 km/h 17.9 km/h 77 % 0 mm
20:18 -11.4 °C -13.6 °C 34889.3 hPa NNW 18.2 km/h 18.2 km/h 77 % 0 mm
20:23 -11.4 °C -13.6 °C 34889.3 hPa NNW 12.9 km/h 12.9 km/h 77 % 0 mm
20:25 -11.5 °C -13.7 °C 34889.3 hPa North 11.9 km/h 11.9 km/h 77 % 0 mm
20:30 -11.5 °C -13.7 °C 34899.5 hPa North 10.3 km/h 10.3 km/h 77 % 0 mm
20:31 -11.6 °C -13.6 °C 34899.5 hPa North 9 km/h 9 km/h 78 % 0 mm
20:35 -11.6 °C -13.7 °C 34899.5 hPa North 12.9 km/h 12.9 km/h 78 % 0 mm
20:36 -11.6 °C -13.7 °C 34899.5 hPa North 17.9 km/h 17.9 km/h 78 % 0 mm
20:41 -11.6 °C -13.7 °C 34889.3 hPa NNW 23.8 km/h 23.8 km/h 78 % 0 mm
20:42 -11.6 °C -13.7 °C 34889.3 hPa North 18.2 km/h 18.2 km/h 78 % 0 mm
20:43 -11.6 °C -13.6 °C 34889.3 hPa North 20.9 km/h 20.9 km/h 79 % 0 mm
20:48 -11.6 °C -13.7 °C 34889.3 hPa North 17.9 km/h 17.9 km/h 78 % 0 mm
20:51 -11.6 °C -13.7 °C 34889.3 hPa North 17.9 km/h 17.9 km/h 78 % 0 mm
20:54 -11.6 °C -13.7 °C 34889.3 hPa North 15 km/h 15 km/h 78 % 0 mm
21:00 -11.7 °C -13.6 °C 34889.3 hPa North 12.9 km/h 15.6 km/h 79 % 0 mm
21:03 -11.7 °C -13.6 °C 34889.3 hPa NNE 15 km/h 15 km/h 79 % 0 mm
21:06 -11.7 °C -13.7 °C 34889.3 hPa NNE 15.6 km/h 15.6 km/h 79 % 0 mm
21:09 -11.7 °C -13.7 °C 34889.3 hPa NNE 20.9 km/h 20.9 km/h 79 % 0 mm
21:11 -11.8 °C -13.7 °C 34889.3 hPa North 23.8 km/h 23.8 km/h 79 % 0 mm
21:14 -11.8 °C -13.8 °C 34889.3 hPa North 17.9 km/h 17.9 km/h 79 % 0 mm
21:17 -11.8 °C -13.8 °C 34889.3 hPa North 20.9 km/h 20.9 km/h 79 % 0 mm
21:20 -11.9 °C -13.8 °C 34889.3 hPa North 17.9 km/h 17.9 km/h 79 % 0 mm
21:23 -11.9 °C -13.8 °C 34889.3 hPa North 15 km/h 15 km/h 79 % 0 mm
21:28 -11.9 °C -13.8 °C 34889.3 hPa North 10.3 km/h 11.4 km/h 79 % 0 mm
21:32 -11.9 °C -13.8 °C 34889.3 hPa North 15.6 km/h 15.6 km/h 79 % 0 mm
21:33 -11.9 °C -13.8 °C 34889.3 hPa North 17.9 km/h 17.9 km/h 79 % 0 mm
21:39 -11.9 °C -13.8 °C 34889.3 hPa North 11.9 km/h 11.9 km/h 79 % 0 mm
21:44 -11.9 °C -13.8 °C 34889.3 hPa North 9 km/h 9 km/h 79 % 0 mm
21:47 -11.9 °C -13.8 °C 34889.3 hPa North 17.9 km/h 17.9 km/h 79 % 0 mm
21:51 -11.9 °C -13.9 °C 34889.3 hPa North 20.9 km/h 20.9 km/h 79 % 0 mm
21:54 -12 °C -13.9 °C 34889.3 hPa North 15.6 km/h 15.6 km/h 79 % 0 mm
21:58 -12.1 °C -14 °C 34889.3 hPa North 26.9 km/h 26.9 km/h 79 % 0 mm
21:59 -12.1 °C -14 °C 34889.3 hPa North 26.9 km/h 26.9 km/h 79 % 0 mm
22:04 -12.1 °C -13.9 °C 34899.5 hPa North 17.9 km/h 17.9 km/h 80 % 0 mm
22:07 -12.1 °C -13.9 °C 34899.5 hPa NNW 23.8 km/h 23.8 km/h 80 % 0 mm
22:08 -12.1 °C -13.9 °C 34889.3 hPa North 23.8 km/h 23.8 km/h 80 % 0 mm
22:12 -12.2 °C -14 °C 34889.3 hPa North 15.6 km/h 15.6 km/h 80 % 0 mm
22:17 -12.1 °C -13.9 °C 34899.5 hPa North 15.6 km/h 15.6 km/h 80 % 0 mm
22:18 -12.1 °C -13.9 °C 34899.5 hPa North 15 km/h 15 km/h 80 % 0 mm
22:23 -12.1 °C -13.9 °C 34899.5 hPa North 17.9 km/h 17.9 km/h 80 % 0 mm
22:28 -12.1 °C -14 °C 34899.5 hPa North 15.6 km/h 15.6 km/h 79 % 0 mm
22:30 -12.1 °C -14 °C 34899.5 hPa North 20.9 km/h 20.9 km/h 79 % 0 mm
22:33 -12.1 °C -14 °C 34889.3 hPa North 17.9 km/h 17.9 km/h 79 % 0 mm
22:38 -12 °C -13.9 °C 34899.5 hPa North 17.9 km/h 17.9 km/h 79 % 0 mm
22:39 -12 °C -13.9 °C 34889.3 hPa North 17.9 km/h 17.9 km/h 79 % 0 mm
22:44 -12.1 °C -14 °C 34899.5 hPa North 11.9 km/h 11.9 km/h 79 % 0 mm
22:46 -12.1 °C -14 °C 34899.5 hPa North 9 km/h 9 km/h 79 % 0 mm
22:49 -12.1 °C -14.1 °C 34899.5 hPa North 10.3 km/h 10.3 km/h 79 % 0 mm
22:51 -12.1 °C -14.1 °C 34899.5 hPa North 15.6 km/h 15.6 km/h 79 % 0 mm
22:56 -12.3 °C -14.2 °C 34899.5 hPa North 17.9 km/h 17.9 km/h 79 % 0 mm
22:58 -12.3 °C -14.2 °C 34899.5 hPa North 23.8 km/h 23.8 km/h 79 % 0 mm
23:01 -12.3 °C -14.1 °C 34899.5 hPa NNW 23.8 km/h 23.8 km/h 80 % 0 mm
23:03 -12.3 °C -14.2 °C 34899.5 hPa North 17.9 km/h 17.9 km/h 80 % 0 mm
23:08 -12.4 °C -14.2 °C 34899.5 hPa North 20.8 km/h 20.8 km/h 80 % 0 mm
23:10 -12.4 °C -14.2 °C 34899.5 hPa North 15.6 km/h 23.3 km/h 80 % 0 mm
23:15 -12.4 °C -14.2 °C 34909.7 hPa North 17.9 km/h 17.9 km/h 80 % 0 mm
23:20 -12.4 °C -14.2 °C 34909.7 hPa North 17.9 km/h 17.9 km/h 80 % 0 mm
23:21 -12.4 °C -14.2 °C 34909.7 hPa North 17.9 km/h 17.9 km/h 80 % 0 mm
23:26 -12.4 °C -14.2 °C 34909.7 hPa North 17.9 km/h 17.9 km/h 80 % 0 mm
23:31 -12.4 °C -14.3 °C 34909.7 hPa NNW 15 km/h 15 km/h 80 % 0 mm
23:32 -12.4 °C -14.3 °C 34909.7 hPa North 20.9 km/h 20.9 km/h 80 % 0 mm
23:37 -12.4 °C -14.2 °C 34909.7 hPa North 15 km/h 15 km/h 80 % 0 mm
23:38 -12.4 °C -14.2 °C 34909.7 hPa North 15 km/h 15 km/h 80 % 0 mm
23:43 -12.4 °C -14.2 °C 34909.7 hPa North 15.6 km/h 15.6 km/h 80 % 0 mm
23:48 -12.4 °C -14.3 °C 34909.7 hPa North 26.9 km/h 26.9 km/h 80 % 0 mm
23:49 -12.4 °C -14.3 °C 34909.7 hPa North 23.8 km/h 23.8 km/h 80 % 0 mm
23:53 -12.4 °C -14.3 °C 34909.7 hPa NNW 18.2 km/h 18.2 km/h 80 % 0 mm
23:58 -12.4 °C -14.3 °C 34909.7 hPa North 15 km/h 15 km/h 80 % 0 mm
23:59 -12.5 °C -14.3 °C 34909.7 hPa North 17.9 km/h 17.9 km/h 80 % 0 mm
Puerto Banus, Marbella
Elogios de Weather Underground - 3 mb

Guión original por  Jim McMurry - jmcmurry@mwt.net Adaptado para la plantilla por  Wim van der Kuil - Leuven-Template.eu

Usted encontrará nuestra información del tiempo también en:

Weather Underground

Iberian Peninsula Weather Network